Weather History for Coatesville, PA

Change the Weather History Date:

Tuesday, December 4, 2012

  Actual Average (KLNS) Record (KLNS)
Temperature  
Mean Temperature 58 °F -  
Max Temperature 66 °F 48 °F 73 °F (1998)
Min Temperature 50 °F 30 °F 13 °F (1976)
Degree Days  
Heating Degree Days 7    
Growing Degree Days 8 (Base 50)    
Moisture  
Dew Point 52 °F    
Average Humidity 84    
Maximum Humidity 100    
Minimum Humidity 64    
Precipitation  
Precipitation 0.00 in - - ()
Sea Level Pressure  
Sea Level Pressure 30.17 in    
Wind  
Wind Speed 2 mph (South)    
Max Wind Speed 7 mph    
Max Gust Speed -    
Visibility 7 miles    
Events      
Averages and records for this station are not official NWS values.
T = Trace of Precipitation, MM = Missing Value Source: NWS Daily Summary

Daily Weather History Graph

Daily Weather History Graph

Search for Another Location

Airport:

Trip Planner

Search our weather history database for the weather conditions in past years. The results will help you decide how hot, cold, wet, or windy it might be!

Date:

Astronomy

Dec. 04, 2012 Rise Set
Actual Time 7:09 AM EST 4:38 PM EST
Civil Twilight 6:39 AM EST 5:08 PM EST
Nautical Twilight 6:05 AM EST 5:42 PM EST
Astronomical Twilight 5:32 AM EST 6:14 PM EST
Moon 10:23 PM EST (12/4) 11:02 AM EST (12/4)
Length of Visible Light 10h 29m
Length of Day
9h 28m
Waning Gibbous, 69% of the Moon is Illuminated
Dec 4
Waning Gibbous
Dec 6
Last Quarter
Dec 13
New
Dec 20
First Quarter
Dec 28
Full

Hourly Weather History & Observations

Time (EST) Temp. Dew Point Humidity Pressure Visibility Wind Dir Wind Speed Gust Speed Precip Events Conditions
12:15 AM 55.4 °F 51.8 °F 88% 30.25 in 6.0 mi South 3.5 mph - N/A   Mostly Cloudy
12:35 AM 53.6 °F 50.0 °F 88% 30.25 in 5.0 mi Calm Calm - N/A   Scattered Clouds
12:55 AM 53.6 °F 51.8 °F 94% 30.25 in 7.0 mi Calm Calm - N/A   Mostly Cloudy
1:15 AM 55.4 °F 51.8 °F 88% 30.24 in 8.0 mi SSW 3.5 mph - N/A   Mostly Cloudy
1:35 AM 55.4 °F 51.8 °F 88% 30.25 in 10.0 mi Calm Calm - N/A   Mostly Cloudy
1:55 AM 57.2 °F 51.8 °F 82% 30.25 in 10.0 mi Calm Calm - N/A   Mostly Cloudy
2:15 AM 55.4 °F 51.8 °F 88% 30.25 in 10.0 mi Calm Calm - N/A   Overcast
2:35 AM 55.4 °F 51.8 °F 88% 30.25 in 10.0 mi Calm Calm - N/A   Overcast
2:55 AM 55.4 °F 51.8 °F 88% 30.25 in 8.0 mi Calm Calm - N/A   Mostly Cloudy
3:15 AM 55.4 °F 51.8 °F 88% 30.25 in 7.0 mi Calm Calm - N/A   Mostly Cloudy
3:35 AM 53.6 °F 51.8 °F 94% 30.24 in 7.0 mi Calm Calm - N/A   Overcast
3:55 AM 53.6 °F 51.8 °F 94% 30.24 in 5.0 mi SE 3.5 mph - N/A   Mostly Cloudy
4:15 AM 53.6 °F 51.8 °F 94% 30.24 in 5.0 mi Calm Calm - N/A   Mostly Cloudy
4:35 AM 53.6 °F 51.8 °F 94% 30.24 in 5.0 mi Calm Calm - N/A   Mostly Cloudy
4:55 AM 53.6 °F 51.8 °F 94% 30.24 in 5.0 mi Calm Calm - N/A   Mostly Cloudy
5:15 AM 53.6 °F 51.8 °F 94% 30.24 in 5.0 mi Calm Calm - N/A   Mostly Cloudy
5:35 AM 53.6 °F 51.8 °F 94% 30.24 in 4.0 mi Calm Calm - N/A   Scattered Clouds
5:55 AM 53.6 °F 51.8 °F 94% 30.24 in 4.0 mi Calm Calm - N/A   Mostly Cloudy
6:15 AM 51.8 °F 51.8 °F 100% 30.25 in 3.0 mi Calm Calm - N/A   Mostly Cloudy
6:35 AM 51.8 °F 51.8 °F 100% 30.25 in 3.0 mi SE 3.5 mph - N/A   Partly Cloudy
6:55 AM 51.8 °F 50.0 °F 94% 30.25 in 2.5 mi SE 3.5 mph - N/A   Clear
7:15 AM 50.0 °F 50.0 °F 100% 30.25 in 1.8 mi Calm Calm - N/A   Mostly Cloudy
7:35 AM 51.8 °F 50.0 °F 94% 30.25 in 1.5 mi South 3.5 mph - N/A   Mostly Cloudy
7:55 AM 51.8 °F 50.0 °F 94% 30.25 in 2.0 mi Calm Calm - N/A   Mostly Cloudy
8:15 AM 51.8 °F 50.0 °F 94% 30.25 in 1.8 mi Calm Calm - N/A   Mostly Cloudy
8:35 AM 51.8 °F 50.0 °F 94% 30.26 in 2.0 mi Calm Calm - N/A   Mostly Cloudy
8:55 AM 51.8 °F 51.8 °F 100% 30.25 in 2.5 mi SSE 3.5 mph - N/A   Scattered Clouds
9:15 AM 51.8 °F 51.8 °F 100% 30.26 in 3.0 mi South 3.5 mph - N/A   Mostly Cloudy
9:55 AM 53.6 °F 51.8 °F 94% 30.26 in 3.0 mi SSE 3.5 mph - N/A   Partly Cloudy
10:15 AM 55.4 °F 51.8 °F 88% 30.25 in 5.0 mi SSE 5.8 mph - N/A   Clear
10:35 AM 57.2 °F 51.8 °F 82% 30.25 in 5.0 mi Calm Calm - N/A   Haze
10:55 AM 57.2 °F 51.8 °F 82% 30.24 in 6.0 mi SSE 4.6 mph - N/A   Haze
11:15 AM 59.0 °F 53.6 °F 82% 30.23 in 7.0 mi SSE 3.5 mph - N/A   Clear
11:35 AM 60.8 °F 53.6 °F 77% 30.22 in 7.0 mi SSE 3.5 mph - N/A   Clear
11:55 AM 60.8 °F 53.6 °F 77% 30.20 in 8.0 mi SE 4.6 mph - N/A   Clear
12:15 PM 62.6 °F 53.6 °F 72% 30.20 in 9.0 mi South 4.6 mph - N/A   Scattered Clouds
12:35 PM 62.6 °F 53.6 °F 72% 30.19 in 8.0 mi SSE 4.6 mph - N/A   Scattered Clouds
12:55 PM 64.4 °F 53.6 °F 68% 30.18 in 9.0 mi South 5.8 mph - N/A   Scattered Clouds
1:15 PM 64.4 °F 53.6 °F 68% 30.17 in 9.0 mi South 3.5 mph - N/A   Mostly Cloudy
1:35 PM 64.4 °F 53.6 °F 68% 30.16 in 9.0 mi South 3.5 mph - N/A   Partly Cloudy
1:55 PM 66.2 °F 53.6 °F 64% 30.15 in 10.0 mi SSE 4.6 mph - N/A   Clear
2:15 PM 66.2 °F 53.6 °F 64% 30.14 in 10.0 mi South 5.8 mph - N/A   Clear
2:35 PM 64.4 °F 53.6 °F 68% 30.14 in 10.0 mi SSE 6.9 mph - N/A   Clear
2:55 PM 64.4 °F 53.6 °F 68% 30.13 in 10.0 mi SSE 4.6 mph - N/A   Clear
3:15 PM 64.4 °F 53.6 °F 68% 30.13 in 10.0 mi South 3.5 mph - N/A   Clear
3:35 PM 64.4 °F 53.6 °F 68% 30.13 in 10.0 mi South 6.9 mph - N/A   Clear
3:55 PM 62.6 °F 53.6 °F 72% 30.13 in 10.0 mi South 5.8 mph - N/A   Clear
4:15 PM 62.6 °F 53.6 °F 72% 30.12 in 10.0 mi South 5.8 mph - N/A   Clear
4:35 PM 62.6 °F 53.6 °F 72% 30.12 in 10.0 mi South 5.8 mph - N/A   Clear
4:55 PM 60.8 °F 53.6 °F 77% 30.12 in 10.0 mi SSE 3.5 mph - N/A   Clear
5:15 PM 60.8 °F 53.6 °F 77% 30.11 in 10.0 mi SSE 5.8 mph - N/A   Clear
5:35 PM 60.8 °F 53.6 °F 77% 30.10 in 10.0 mi SSE 3.5 mph - N/A   Clear
5:55 PM 59.0 °F 53.6 °F 82% 30.11 in 10.0 mi Calm Calm - N/A   Clear
6:15 PM 57.2 °F 53.6 °F 88% 30.10 in 9.0 mi SSE 3.5 mph - N/A   Clear
6:35 PM 57.2 °F 53.6 °F 88% 30.11 in 9.0 mi Calm Calm - N/A   Clear
6:55 PM 55.4 °F 53.6 °F 94% 30.10 in 7.0 mi Calm Calm - N/A   Clear
7:15 PM 53.6 °F 51.8 °F 94% 30.09 in 6.0 mi Calm Calm - N/A   Clear
7:35 PM 55.4 °F 51.8 °F 88% 30.08 in 7.0 mi South 3.5 mph - N/A   Clear
7:55 PM 57.2 °F 51.8 °F 82% 30.07 in 9.0 mi South 3.5 mph - N/A   Scattered Clouds
8:15 PM 57.2 °F 51.8 °F 82% 30.07 in 10.0 mi South 3.5 mph - N/A   Mostly Cloudy
8:55 PM 57.2 °F 51.8 °F 82% 30.06 in 10.0 mi South 4.6 mph - N/A   Mostly Cloudy
9:15 PM 57.2 °F 51.8 °F 82% 30.06 in 10.0 mi SSW 3.5 mph - N/A   Mostly Cloudy
9:35 PM 57.2 °F 51.8 °F 82% 30.05 in 10.0 mi South 6.9 mph - N/A   Overcast
9:55 PM 57.2 °F 51.8 °F 82% 30.04 in 10.0 mi SSW 3.5 mph - N/A   Overcast
10:15 PM 59.0 °F 51.8 °F 77% 30.04 in 10.0 mi SSW 3.5 mph - N/A   Overcast
10:35 PM 59.0 °F 51.8 °F 77% 30.03 in 10.0 mi South 4.6 mph - N/A   Mostly Cloudy
10:55 PM 57.2 °F 51.8 °F 82% 30.02 in 10.0 mi South 4.6 mph - N/A   Mostly Cloudy
11:15 PM 59.0 °F 51.8 °F 77% 30.01 in 10.0 mi SSW 3.5 mph - N/A   Scattered Clouds
11:35 PM 59.0 °F 51.8 °F 77% 30.01 in 10.0 mi South 3.5 mph - N/A   Scattered Clouds
11:55 PM 57.2 °F 51.8 °F 82% 30.00 in 10.0 mi Calm Calm - N/A   Scattered Clouds